TimeMST,TemperatureF,Dew PointF,Humidity,Sea Level PressureIn,VisibilityMPH,Wind Direction,Wind SpeedMPH,Gust SpeedMPH,PrecipitationIn,Events,Conditions,WindDirDegrees,DateUTC
12:56 AM,19.0,16.0,88,29.74,10.0,SW,5.8,-,N/A,,Scattered Clouds,230,2013-01-29 07:56:00
1:56 AM,17.1,15.1,92,29.74,10.0,WSW,3.5,-,N/A,,Scattered Clouds,250,2013-01-29 08:56:00
2:56 AM,18.0,15.1,88,29.73,10.0,West,3.5,-,N/A,,Partly Cloudy,270,2013-01-29 09:56:00
3:56 AM,17.1,14.0,88,29.73,10.0,Calm,Calm,-,N/A,,Mostly Cloudy,0,2013-01-29 10:56:00
4:56 AM,14.0,10.9,88,29.74,10.0,West,4.6,-,N/A,,Clear,270,2013-01-29 11:56:00
5:56 AM,15.1,12.0,88,29.75,10.0,West,4.6,-,N/A,,Clear,280,2013-01-29 12:56:00
6:56 AM,12.9,10.0,88,29.77,10.0,WNW,9.2,-,N/A,,Clear,290,2013-01-29 13:56:00
7:56 AM,15.1,12.0,88,29.78,10.0,West,6.9,-,N/A,,Clear,280,2013-01-29 14:56:00
8:56 AM,21.0,17.1,85,29.79,10.0,WNW,6.9,-,N/A,,Mostly Cloudy,290,2013-01-29 15:56:00
9:56 AM,23.0,18.0,81,29.82,10.0,NW,6.9,-,N/A,,Overcast,320,2013-01-29 16:56:00
10:56 AM,23.0,17.1,78,29.85,10.0,North,12.7,-,0.00,,Partly Cloudy,10,2013-01-29 17:56:00
11:19 AM,21.2,15.8,80,29.75,10.0,North,8.1,-,N/A,,Mostly Cloudy,10,2013-01-29 18:19:00
11:49 AM,19.4,15.8,86,29.76,2.5,North,12.7,-,N/A,,Overcast,10,2013-01-29 18:49:00
11:56 AM,18.0,16.0,92,29.90,2.5,North,12.7,-,N/A,,Overcast,10,2013-01-29 18:56:00
12:24 PM,19.4,15.8,86,29.78,7.0,North,15.0,-,N/A,,Overcast,10,2013-01-29 19:24:00
12:30 PM,17.6,15.8,93,29.78,1.8,North,12.7,-,0.00,Snow,Light Snow,10,2013-01-29 19:30:00
12:40 PM,17.6,14.0,86,29.78,3.0,North,12.7,-,0.00,Snow,Light Snow,360,2013-01-29 19:40:00
12:49 PM,17.6,14.0,86,29.78,5.0,North,15.0,-,0.00,,Overcast,10,2013-01-29 19:49:00
12:56 PM,17.1,14.0,88,29.91,8.0,North,12.7,-,0.00,,Overcast,10,2013-01-29 19:56:00
1:27 PM,17.6,12.2,79,29.80,10.0,NNE,13.8,-,N/A,,Overcast,20,2013-01-29 20:27:00
1:49 PM,19.4,14.0,80,29.81,1.8,NNE,13.8,-,0.00,Snow,Light Snow,20,2013-01-29 20:49:00
1:56 PM,18.0,14.0,84,29.94,0.2,North,12.7,-,0.00,Fog-Snow,Heavy Snow,10,2013-01-29 20:56:00
2:18 PM,19.4,15.8,86,29.83,0.8,North,11.5,-,0.00,Snow,Light Snow,350,2013-01-29 21:18:00
2:24 PM,19.4,14.0,80,29.84,1.0,North,11.5,-,0.00,Snow,Light Snow,360,2013-01-29 21:24:00
2:35 PM,19.4,14.0,80,29.84,0.5,North,11.5,-,0.00,Snow,Snow,360,2013-01-29 21:35:00
2:54 PM,19.4,15.8,86,29.86,2.0,North,12.7,-,0.00,Snow,Light Snow,350,2013-01-29 21:54:00
2:56 PM,19.0,15.1,85,29.98,2.0,North,15.0,20.7,0.00,Snow,Light Snow,360,2013-01-29 21:56:00
3:03 PM,19.4,14.0,80,29.86,1.8,North,13.8,-,0.00,Snow,Light Snow,350,2013-01-29 22:03:00
3:10 PM,17.6,12.2,79,29.86,2.5,North,17.3,23.0,0.00,Snow,Light Snow,360,2013-01-29 22:10:00
3:17 PM,17.6,12.2,79,29.87,5.0,North,15.0,23.0,0.00,Snow,Light Snow,350,2013-01-29 22:17:00
3:28 PM,17.6,12.2,79,29.88,2.5,NNW,16.1,-,0.00,Snow,Light Snow,340,2013-01-29 22:28:00
3:38 PM,17.6,12.2,79,29.89,4.0,North,17.3,-,0.00,Snow,Light Snow,350,2013-01-29 22:38:00
3:56 PM,18.0,12.0,78,30.02,4.0,North,17.3,27.6,0.01,Snow,Light Snow,350,2013-01-29 22:56:00
4:15 PM,17.6,12.2,79,29.91,2.0,NNW,15.0,-,0.00,Snow,Light Snow,340,2013-01-29 23:15:00
4:29 PM,17.6,12.2,79,29.91,4.0,NNW,13.8,-,0.00,Snow,Light Snow,330,2013-01-29 23:29:00
4:56 PM,17.1,12.9,84,30.06,2.5,NNW,16.1,-,0.00,Snow,Light Snow,330,2013-01-29 23:56:00
5:35 PM,17.6,12.2,79,29.94,2.0,NW,18.4,-,0.00,Snow,Light Snow,320,2013-01-30 00:35:00
5:46 PM,15.8,12.2,86,29.95,3.0,NNW,20.7,-,0.00,Snow,Light Snow,330,2013-01-30 00:46:00
5:56 PM,16.0,10.9,81,30.09,3.0,NW,24.2,-,0.00,Snow,Light Snow,320,2013-01-30 00:56:00
6:37 PM,12.2,8.6,85,29.98,2.0,NW,23.0,31.1,0.00,Snow,Light Snow,320,2013-01-30 01:37:00
6:56 PM,12.0,7.0,80,30.14,2.5,NW,25.3,-,0.00,Snow,Light Snow,320,2013-01-30 01:56:00
7:07 PM,10.4,6.8,85,29.99,4.0,NW,20.7,29.9,0.00,Snow,Light Snow,320,2013-01-30 02:07:00
7:51 PM,8.6,3.2,79,30.02,2.5,NW,21.9,29.9,0.00,Snow,Light Snow,310,2013-01-30 02:51:00
7:56 PM,9.0,3.9,80,30.17,3.0,NW,21.9,28.8,0.00,Snow,Light Snow,320,2013-01-30 02:56:00
8:03 PM,8.6,3.2,79,30.02,2.5,NW,23.0,31.1,0.00,Snow,Light Snow,320,2013-01-30 03:03:00
8:18 PM,6.8,1.4,79,30.02,1.2,NW,25.3,-,0.00,Snow,Light Snow,320,2013-01-30 03:18:00
8:25 PM,6.8,1.4,79,30.02,1.5,NW,27.6,33.4,0.00,Snow,Light Snow,320,2013-01-30 03:25:00
8:31 PM,6.8,1.4,79,30.02,2.0,NW,26.5,33.4,0.00,Snow,Light Snow,320,2013-01-30 03:31:00
8:56 PM,3.9,-0.9,80,30.17,4.0,NW,20.7,-,0.00,Snow,Light Snow,320,2013-01-30 03:56:00
9:03 PM,3.2,-0.4,85,30.02,2.5,NW,21.9,-,0.00,Snow,Light Snow,310,2013-01-30 04:03:00
9:22 PM,1.4,-2.2,85,30.03,2.0,NW,24.2,31.1,0.00,Snow,Light Snow,310,2013-01-30 04:22:00
9:56 PM,1.0,-5.1,75,30.18,4.0,NW,26.5,29.9,0.00,Snow,Light Snow,310,2013-01-30 04:56:00
10:06 PM,-0.4,-5.8,78,30.03,2.5,NW,20.7,-,0.00,Snow,Light Snow,310,2013-01-30 05:06:00
10:27 PM,-0.4,-5.8,78,30.03,4.0,NW,21.9,-,0.00,Snow,Light Snow,310,2013-01-30 05:27:00
10:56 PM,-0.9,-7.1,75,30.19,7.0,WNW,23.0,-,0.00,Snow,Light Snow,300,2013-01-30 05:56:00
11:06 PM,-2.2,-7.6,78,30.03,2.0,NW,19.6,-,0.00,Snow,Light Snow,310,2013-01-30 06:06:00
11:13 PM,-2.2,-7.6,78,30.02,1.2,NW,20.7,-,0.00,Snow,Light Snow,310,2013-01-30 06:13:00
11:26 PM,-2.2,-7.6,78,30.02,3.0,WNW,20.7,-,0.00,Snow,Light Snow,300,2013-01-30 06:26:00
11:42 PM,-2.2,-7.6,78,30.02,1.8,WNW,24.2,-,0.00,Snow,Light Snow,300,2013-01-30 06:42:00
11:56 PM,-2.0,-8.0,76,30.18,0.8,WNW,26.5,-,0.00,Snow,Light Snow,300,2013-01-30 06:56:00